[[{"header":{"parameterUnit":"m.s-1","parameterCategory":1,"la1":30.2991,"la2":30.254,"lo1":-89.0895,"lo2":-89.0444,"dy":0.0017,"dx":0.0017,"nx":28,"ny":28,"refTime":"2024-03-28T21:00:00:Z","depth":0,"parameterNumber":2,"parameterNumberName":"U-component_of_WINDS"},"data":[0,0,0,0,0,0,0,0,0,0,0,0,0,0,0,0,0,0,0,0,0,0,0,0,0,0,0,0,0,0,0,0,0,0,0,0,0,0,0,0,0,0,0,0,0,0,0,0,0,0,0,0,0,0,0,0,0,0,0.0796,0.0795,0,0.0746,0.0745,0.0744,0.0709,0.0708,0.0708,0.0708,0.0655,0.0654,0.0653,0,0,0,0,0,0,0,0,0,0,0,0,0,0.0858,0.0857,0.0796,0.0795,0.0794,0.0746,0.0745,0.0744,0.0709,0.0708,0.0708,0.0708,0.0655,0.0654,0.0653,0,0,0,0,0,0,0,0,0,0,0,0,0,0.0821,0.0856,0.0796,0.0771,0.0768,0.0746,0.0745,0.0744,0.0709,0.0708,0.0708,0.0707,0.0656,0.0654,0.0653,0.0651,0,0,0.0647,0.0647,0,0,0,0,0,0,0,0,0.0824,0.0819,0.0775,0.0772,0.0769,0.0733,0.0748,0.0713,0.0709,0.0731,0.0708,0.0707,0.0681,0.0677,0.0669,0.0648,0.0646,0.0647,0.0646,0.0646,0.0645,0,0,0,0,0,0,0,0.0826,0.0821,0.0776,0.0774,0.0771,0.0761,0.0756,0.0741,0.0709,0.0729,0.0726,0.0721,0.068,0.0671,0.0667,0.0645,0.0647,0.0646,0.0645,0.0644,0.0619,0.0619,0,0,0,0,0,0,0.0833,0.0823,0.0777,0.0774,0.0796,0.076,0.0754,0.0745,0.0709,0.0703,0.0722,0.072,0.0674,0.0669,0.0665,0.066,0.0646,0.0644,0.0643,0.0618,0.0619,0.0619,0,0,0,0,0,0,0.0834,0.0829,0.0779,0.0798,0.0791,0.076,0.075,0.0744,0.0735,0.0704,0.0698,0.0718,0.0673,0.0668,0.0654,0.0657,0.0643,0.0642,0.0618,0.0618,0.0619,0.0649,0,0,0,0,0,0,0.0836,0.083,0.083,0.0798,0.079,0.077,0.075,0.0744,0.0733,0.073,0.0699,0.0693,0.0673,0.0657,0.0653,0.0655,0.064,0.0617,0.0618,0.0619,0.0648,0.065,0.0653,0,0,0,0,0,0.0839,0.084,0.083,0.0824,0.0789,0.077,0.0765,0.0742,0.0733,0.0732,0.0711,0.0694,0.0658,0.0656,0.0651,0.0652,0.0617,0.0618,0.0619,0.0646,0.065,0.0653,0,0,0,0,0,0,0.0872,0.0836,0.0824,0.0815,0.0796,0.0764,0.0762,0.0747,0.0729,0.0727,0.0698,0.0691,0.068,0.0665,0.0664,0.0648,0.0635,0.0635,0.0658,0.0661,0.0664,0.0667,0.0639,0,0,0,0,0,0.0879,0.0867,0.0835,0.0831,0.0822,0.0794,0.0785,0.0768,0.0747,0.0738,0.0717,0.0696,0.068,0.067,0.0653,0.0645,0.0637,0.0644,0.0646,0.0649,0.0649,0.0641,0.0643,0.0622,0.0622,0.0622,0,0,0.0892,0.0871,0.0865,0.0837,0.0821,0.0808,0.0787,0.0775,0.0765,0.0736,0.0722,0.0706,0.068,0.0669,0.0663,0.0656,0.0653,0.065,0.0652,0.065,0.0642,0.0644,0.0646,0.0622,0.0622,0.0622,0,0,0.091,0.0893,0.0887,0.087,0.0845,0.0826,0.0824,0.0794,0.0782,0.0767,0.0745,0.0732,0.0705,0.0688,0.0676,0.0685,0.0668,0.068,0.0694,0.0687,0.0689,0.069,0.0692,0.0694,0.068,0.068,0.0681,0,0.0929,0.091,0.0885,0.0874,0.0862,0.0835,0.0828,0.0813,0.0783,0.0775,0.0768,0.0732,0.0713,0.0697,0.0699,0.0691,0.0687,0.0683,0.0691,0.0692,0.0693,0.0694,0.0695,0.0682,0.0682,0.0682,0.0682,0,0.0934,0.0922,0.0919,0.0891,0.0879,0.087,0.0843,0.0833,0.0817,0.0799,0.0783,0.0759,0.0737,0.0732,0.0716,0.0713,0.0709,0.0697,0.0683,0.0697,0.0698,0.0698,0.0684,0.0684,0.0683,0.0683,0,0,0.0972,0.093,0.0929,0.0916,0.0885,0.0874,0.0863,0.0841,0.0833,0.0813,0.0802,0.0779,0.0767,0.0753,0.0736,0.073,0.0737,0.0718,0.0717,0.0721,0.0729,0.0738,0.0739,0.0726,0.0726,0.0726,0.0731,0,0.0984,0.0963,0.094,0.0927,0.0914,0.0888,0.0878,0.0858,0.084,0.0825,0.0805,0.0789,0.0775,0.0766,0.0759,0.0738,0.0738,0.0737,0.0714,0.0714,0.072,0.074,0.0749,0.0755,0.0731,0.0731,0.0731,0,0.0995,0.0977,0.0962,0.0932,0.0925,0.0917,0.0894,0.0881,0.0857,0.0844,0.0828,0.0809,0.0794,0.0783,0.0762,0.0762,0.0751,0.0739,0.0738,0.0735,0.0723,0.0736,0.0757,0.0758,0.0732,0.0732,0.0732,0,0.1022,0.0994,0.0981,0.097,0.0935,0.0929,0.0914,0.089,0.0877,0.0857,0.0849,0.0827,0.0815,0.0798,0.0773,0.0767,0.0754,0.0741,0.0742,0.0742,0.074,0.074,0.0759,0.0735,0.0735,0.0735,0.0735,0,0.1037,0.1029,0.0993,0.0985,0.0975,0.0947,0.0938,0.092,0.0898,0.0885,0.0862,0.085,0.0818,0.0802,0.0782,0.0767,0.0762,0.075,0.0745,0.0752,0.0753,0.0744,0.0742,0.0735,0.0735,0.0735,0.0735,0,0.1066,0.1041,0.1025,0.0993,0.0984,0.0978,0.095,0.094,0.0921,0.0905,0.09,0.0869,0.0849,0.0822,0.0794,0.078,0.0767,0.0759,0.0776,0.0772,0.0774,0.0774,0.0786,0.0786,0.0763,0.0764,0.0764,0,0.1077,0.107,0.1036,0.1026,0.1012,0.0996,0.0984,0.0956,0.0944,0.0915,0.0909,0.0887,0.0868,0.0837,0.0812,0.0789,0.078,0.0786,0.0777,0.0783,0.0779,0.0779,0.0777,0.0788,0.0789,0.0789,0.0789,0,0.1098,0.1086,0.1069,0.1047,0.1033,0.1014,0.0994,0.0987,0.0956,0.0942,0.0922,0.0907,0.0878,0.0856,0.0831,0.0814,0.0796,0.0792,0.0791,0.0798,0.0807,0.0801,0.0781,0.0792,0.0792,0.0792,0.0791,0.0791,0.1117,0.1109,0.1084,0.1065,0.1048,0.103,0.1019,0.0998,0.098,0.0955,0.0939,0.0919,0.0893,0.0857,0.0841,0.0824,0.0817,0.0815,0.0815,0.0814,0.0816,0.081,0.0819,0.0819,0.0819,0.0819,0.0818,0,0.1136,0.1118,0.1101,0.1075,0.106,0.1045,0.1022,0.101,0.0992,0.097,0.0952,0.0928,0.0906,0.0878,0.0855,0.0846,0.0837,0.0841,0.084,0.0836,0.0824,0.0827,0.0848,0.0848,0.0848,0.0848,0.0848,0.0848,0.1144,0.1129,0.1114,0.109,0.1072,0.1052,0.104,0.1023,0.1005,0.0979,0.0961,0.0943,0.0918,0.0892,0.0871,0.0864,0.0855,0.0861,0.0851,0.084,0.0838,0.0835,0.0838,0.086,0.086,0.0864,0.0864,0.0864]},{"header":{"parameterUnit":"m.s-1","parameterCategory":1,"la1":30.2991,"la2":30.254,"lo1":-89.0895,"lo2":-89.0444,"dy":0.0017,"dx":0.0017,"nx":28,"ny":28,"refTime":"2024-03-28T21:00:00:Z","depth":0,"parameterNumber":3,"parameterNumberName":"V-component_of_WINDS"},"data":[0,0,0,0,0,0,0,0,0,0,0,0,0,0,0,0,0,0,0,0,0,0,0,0,0,0,0,0,0,0,0,0,0,0,0,0,0,0,0,0,0,0,0,0,0,0,0,0,0,0,0,0,0,0,0,0,0,0,4.6808,4.6809,0,4.6897,4.6898,4.6899,4.685,4.6847,4.6845,4.6842,4.6926,4.6931,4.6935,0,0,0,0,0,0,0,0,0,0,0,0,0,4.6587,4.6591,4.6808,4.6809,4.6811,4.6897,4.6898,4.69,4.685,4.6847,4.6844,4.6841,4.6925,4.693,4.6936,0,0,0,0,0,0,0,0,0,0,0,0,0,4.668,4.6593,4.6808,4.6796,4.6796,4.6897,4.6898,4.69,4.6851,4.6847,4.6843,4.684,4.6923,4.693,4.6936,4.7051,0,0,4.6957,4.696,0,0,0,0,0,0,0,0,4.6675,4.6688,4.6797,4.6797,4.6797,4.6859,4.6851,4.695,4.6852,4.683,4.6842,4.6838,4.6906,4.6914,4.6939,4.7055,4.7059,4.6958,4.6962,4.6965,4.6967,0,0,0,0,0,0,0,4.6668,4.6684,4.6843,4.6799,4.6799,4.6784,4.6793,4.687,4.6887,4.6831,4.6828,4.684,4.6906,4.6932,4.694,4.706,4.6957,4.6964,4.6968,4.697,4.7272,4.7275,0,0,0,0,0,0,4.6664,4.6679,4.684,4.6846,4.6726,4.6791,4.6801,4.6843,4.6886,4.689,4.6843,4.6837,4.6923,4.6933,4.6943,4.7078,4.6965,4.6971,4.6975,4.7268,4.7273,4.7277,0,0,0,0,0,0,4.6659,4.6679,4.6837,4.6762,4.6781,4.6799,4.6846,4.6846,4.6873,4.6895,4.6897,4.6867,4.692,4.6934,4.7025,4.7081,4.6974,4.698,4.7263,4.7269,4.7275,4.7351,0,0,0,0,0,0,4.6653,4.6677,4.6724,4.6763,4.6785,4.692,4.6849,4.6851,4.6886,4.6879,4.6919,4.6922,4.6918,4.7015,4.7031,4.7088,4.6985,4.7258,4.7266,4.7273,4.7344,4.7359,4.7372,0,0,0,0,0,4.6645,4.6741,4.6726,4.6746,4.6843,4.6923,4.6935,4.6932,4.6891,4.6935,4.6949,4.692,4.7072,4.7025,4.7043,4.7102,4.7255,4.7264,4.7272,4.7337,4.7356,4.7372,0,0,0,0,0,0,4.6705,4.6746,4.673,4.6842,4.688,4.6915,4.6971,4.6952,4.7001,4.6992,4.6983,4.6992,4.7087,4.7104,4.705,4.7214,4.7156,4.7169,4.72,4.7218,4.7232,4.7225,4.6991,0,0,0,0,0,4.6732,4.6796,4.6827,4.6922,4.6942,4.6954,4.6988,4.6982,4.702,4.7035,4.7055,4.7091,4.7146,4.7183,4.7236,4.7346,4.7352,4.7396,4.741,4.7422,4.7432,4.7489,4.7508,4.7306,4.7306,4.7306,0,0,4.6786,4.6816,4.6857,4.6934,4.6963,4.7026,4.6967,4.7037,4.7083,4.7045,4.7132,4.7148,4.7187,4.7288,4.7333,4.7305,4.749,4.7433,4.7442,4.7447,4.75,4.7519,4.7536,4.7312,4.7311,4.731,0,0,4.6918,4.6949,4.703,4.706,4.7105,4.7112,4.7131,4.7169,4.7179,4.7267,4.7239,4.7292,4.7388,4.7417,4.7444,4.7584,4.7559,4.7601,4.7675,4.773,4.7746,4.776,4.7808,4.7826,4.7612,4.7613,4.7613,0,4.6979,4.7077,4.7074,4.7146,4.7179,4.715,4.723,4.7258,4.7317,4.7339,4.7307,4.7427,4.7451,4.7556,4.7591,4.7614,4.7634,4.7596,4.7745,4.7759,4.7772,4.7817,4.7835,4.7617,4.7617,4.7616,4.7616,0,4.7149,4.7216,4.7276,4.7336,4.7376,4.7452,4.7457,4.7498,4.7488,4.7497,4.7585,4.7613,4.767,4.7694,4.7685,4.7798,4.7779,4.7746,4.7688,4.7796,4.7838,4.7856,4.7624,4.7622,4.7621,4.762,0,0,4.7321,4.7377,4.7399,4.7424,4.7471,4.7521,4.7594,4.7652,4.7685,4.7726,4.7785,4.7867,4.7837,4.7867,4.786,4.7909,4.8016,4.787,4.7871,4.7894,4.8139,4.8162,4.8182,4.7999,4.8003,4.8005,4.8135,0,4.7454,4.7585,4.7583,4.7703,4.7763,4.7735,4.7798,4.7831,4.7841,4.7892,4.7901,4.7959,4.7916,4.7934,4.7981,4.7993,4.8064,4.7984,4.8051,4.8054,4.8041,4.8205,4.823,4.835,4.8151,4.8154,4.8156,0,4.7627,4.7675,4.7802,4.7837,4.7863,4.792,4.7971,4.802,4.8056,4.806,4.8094,4.8079,4.8149,4.809,4.8186,4.8131,4.8158,4.8168,4.8172,4.8177,4.8111,4.8212,4.8389,4.8407,4.8183,4.8181,4.8179,0,4.7737,4.7834,4.7921,4.7944,4.7988,4.8029,4.8048,4.8081,4.8115,4.8158,4.8179,4.823,4.8257,4.8296,4.8293,4.8251,4.8389,4.833,4.8391,4.8392,4.8421,4.8419,4.8603,4.8442,4.8441,4.8441,4.8441,0,4.7885,4.7963,4.7971,4.8025,4.8109,4.8105,4.8189,4.8204,4.8233,4.8287,4.8265,4.8315,4.831,4.8359,4.8358,4.8435,4.8448,4.8451,4.8449,4.8452,4.8452,4.8469,4.846,4.8446,4.8445,4.8444,4.8443,0,4.8022,4.8031,4.8124,4.8159,4.8169,4.823,4.8258,4.8307,4.8315,4.8383,4.8398,4.841,4.8467,4.8469,4.8534,4.8533,4.8627,4.8617,4.8615,4.8613,4.8673,4.8667,4.8874,4.89,4.8723,4.8725,4.8726,0,4.8116,4.8175,4.8216,4.8251,4.8274,4.8331,4.8366,4.8363,4.8399,4.8443,4.8486,4.8542,4.8586,4.8678,4.8691,4.874,4.8729,4.8798,4.8736,4.8737,4.8728,4.8724,4.8728,4.881,4.8812,4.8813,4.8815,0,4.8279,4.828,4.8332,4.8386,4.8428,4.8469,4.8507,4.8536,4.8537,4.8578,4.8638,4.8672,4.8739,4.8793,4.884,4.8857,4.8835,4.8834,4.8851,4.8853,4.885,4.885,4.8646,4.8829,4.8828,4.8827,4.8826,4.8825,4.8396,4.8446,4.8483,4.854,4.8569,4.8605,4.8652,4.8666,4.8716,4.8772,4.8766,4.8831,4.8863,4.8924,4.8945,4.8994,4.897,4.8994,4.9,4.9006,4.9011,4.8843,4.9003,4.9002,4.9002,4.9002,4.9001,0,4.8556,4.8578,4.8632,4.8686,4.8731,4.8709,4.8749,4.8787,4.8845,4.8878,4.8922,4.8988,4.904,4.9057,4.9106,4.9142,4.9133,4.9155,4.9151,4.9155,4.9031,4.9011,4.9161,4.9161,4.9161,4.9161,4.9161,4.9161,4.8645,4.8729,4.8734,4.883,4.885,4.8916,4.894,4.8972,4.8997,4.9074,4.9117,4.9128,4.9153,4.9204,4.925,4.9253,4.9271,4.9297,4.9296,4.918,4.9164,4.9148,4.913,4.9302,4.9302,4.9416,4.9417,4.9417]}]]